Location: Grangia dell’Antolina
(44.6500°N, 6.9667°E)
Time: 16:12:46
(UTC+00:00)

Daily predictions for brighter satellites

Satellite Brightness Start Highest point End
(mag) Time Altitude Azimuth Time Altitude Azimuth Time Altitude Azimuth
Cosmos 1092 Rocket 4.1 19:48:31 10° S 19:54:51 89° ESE 20:01:15 10° N
Cosmos 540 Rocket 4.1 19:51:34 10° N 19:56:29 43° ENE 20:01:22 10° SE
Cosmos 1954 Rocket 4.5 19:54:06 10° S 19:59:01 41° ESE 20:03:57 10° NE
USA 245 4.4 19:57:11 10° SE 20:00:02 28° ENE 20:03:30 10° N
Tiangong -1.6 19:59:01 10° W 20:02:03 43° S 20:05:05 10° ESE
Terra 2.7 19:59:32 10° SE 20:03:47 35° ENE 20:08:02 10° N
Cosmos 1707 3.0 20:03:19 10° SSE 20:06:44 42° E 20:10:10 10° NNE
Cosmos 1515 Rocket 3.5 20:03:18 10° S 20:07:34 68° E 20:11:53 10° NNE
SL-4 R/B 2.7 20:04:39 10° W 20:08:19 53° NNW 20:12:15 10° NE
Cosmos 1633 Rocket 3.9 20:06:32 10° NNW 20:10:48 51° W 20:15:02 10° S
Cosmos 1190 Rocket 4.0 20:06:56 10° S 20:12:12 72° ESE 20:17:31 10° NNE
Okean O Rocket 3.1 20:11:09 10° SSW 20:15:12 35° W 20:19:14 10° NNW
SeaSat 1 2.5 20:12:16 10° SE 20:17:08 71° ENE 20:22:03 10° NNW
Cosmos 1766 3.9 20:14:39 10° NNW 20:18:21 53° W 20:21:59 10° S
EXPRESS MD2 2.2 20:16:30 10° WSW 20:19:46 76° SSE 20:22:04 10° ENE
CZ-4 R/B 4.5 20:21:43 10° W 20:22:31 10° W 20:23:20 10° WNW
Cosmos 1470 Rocket 4.0 20:18:31 10° NNW 20:22:49 61° W 20:27:05 10° S
USA 234 3.2 20:16:43 10° NE 20:23:17 83° SE 20:29:50 10° SW
Cosmos 1869 Rocket 4.2 20:21:23 10° N 20:25:37 43° ENE 20:29:11 14° SE
IRS-1A Rocket 4.2 20:23:38 10° SSE 20:29:08 88° ENE 20:34:41 10° NNW
MOS 1 Rocket 4.0 20:26:39 12° SE 20:31:25 53° ENE 20:36:36 10° N
Cosmos 2360 Rocket 3.7 20:26:51 10° N 20:31:30 25° NE 20:36:09 10° ESE
Cosmos 2333 Rocket 3.7 20:31:31 10° N 20:36:17 26° NE 20:41:01 10° ESE
Cosmos 841 Rocket 4.2 20:31:42 10° N 20:36:44 43° ENE 20:40:43 15° SE
ERS-1 Rocket 3.0 20:33:11 12° SSE 20:37:56 86° ENE 20:42:59 10° NNW
Atlas Centaur 2 3.9 20:31:13 10° SW 20:38:02 29° S 20:43:36 14° SE
Cosmos 1441 Rocket 3.0 20:35:34 10° N 20:39:10 74° ENE 20:41:54 17° SSE
SL-16 R/B 2.6 20:33:58 10° NNW 20:39:31 52° ENE 20:43:56 16° SE
Resurs 01 Rocket 4.2 20:37:22 10° SW 20:40:06 16° W 20:42:52 10° NW
Cosmos 1763 Rocket 3.9 20:35:41 10° NNW 20:40:51 59° WSW 20:45:43 11° S
Cosmos 2369 4.3 20:35:31 10° NW 20:41:04 52° WSW 20:46:32 10° S
In-Cosmos 22 4.2 20:36:23 10° S 20:41:59 66° E 20:47:28 10° NNE
Spot 2 Rocket 3.5 20:38:13 14° SSE 20:42:32 72° ENE 20:47:35 10° N
Cosmos 2082 Rocket 3.2 20:37:10 10° SW 20:42:43 51° WNW 20:48:16 10° NNE
RESURS DK-1 3.7 20:39:13 10° N 20:42:48 29° NE 20:45:34 14° ESE
SL-14 R/B 4.3 20:42:16 18° SE 20:44:05 27° E 20:47:19 10° NNE
Cosmos 1933 Rocket 3.9 20:42:45 10° NNW 20:47:09 66° W 20:51:18 11° S
SPOT 5 3.5 20:43:11 10° S 20:47:18 45° W 20:51:29 10° NNW
Cosmos 1470 3.3 20:44:08 10° NNW 20:47:43 51° W 20:51:09 11° S
Cosmos 1417 Rocket 4.5 20:41:52 10° N 20:48:06 80° E 20:53:27 14° SSE
Cosmos 1300 3.7 20:48:07 10° NNE 20:51:17 29° ENE 20:52:53 20° ESE
Cosmos 1908 3.4 20:51:22 10° NNW 20:54:56 62° W 20:57:41 16° S
Cosmos 1346 Rocket 3.8 20:56:21 10° N 20:59:51 32° ENE 21:01:35 22° ESE
ATLAS 2AS CENTAUR R/B 3.5 20:55:42 10° NNW 21:02:14 44° NE 21:07:52 13° ESE
Meteor 1-22 Rocket 4.2 20:58:28 10° N 21:04:06 85° ENE 21:08:27 19° SSE
Ariane Rocket 3.1 21:03:06 17° S 21:07:03 74° WSW 21:12:10 10° NNW
Meteor 1-4 Rocket 4.1 21:09:50 16° E 21:09:50 16° E 21:11:28 10° NE
Cosmos 1758 3.4 21:07:12 10° N 21:11:04 58° E 21:12:54 28° SSE
Cosmos 1356 Rocket 3.7 21:09:23 25° SSE 21:11:31 50° E 21:15:36 10° NNE
SPOT 3 Rocket 3.7 21:12:14 18° S 21:16:00 68° WSW 21:21:10 10° NNW
Cosmos 1850 Rocket 4.0 21:13:25 17° S 21:17:28 63° ESE 21:22:37 10° NNE
Cosmos 1707 Rocket 3.7 21:16:09 25° SSE 21:18:36 61° E 21:23:00 10° NNE
SL-27 R/B 2.8 21:19:33 32° E 21:19:33 32° E 21:21:48 10° NE
ARIANE 5 R/B 4.1 21:17:31 18° ESE 21:19:31 25° ENE 21:23:02 10° NNE
Cosmos 1980 Rocket 4.4 21:19:43 10° WNW 21:23:25 18° W 21:27:07 10° SW
S3M 4.3 21:17:50 10° NNW 21:24:10 67° W 21:29:07 17° S
Cosmos 2322 Rocket 2.3 21:18:28 10° NNW 21:24:10 72° ENE 21:27:28 26° SE
Meteor 1-21 4.3 21:21:06 22° S 21:24:55 64° E 21:30:41 10° NNE
Spot 1 4.2 21:20:36 10° NNE 21:25:06 88° E 21:28:33 19° SSW
Cosmos 1655 Rocket 4.1 21:22:56 15° S 21:28:21 88° W 21:34:49 10° N
SJ 16-02 1.9 21:28:54 31° SE 21:29:58 37° ESE 21:33:57 10° NE
Landsat 5 3.4 21:28:31 10° N 21:32:30 80° WNW 21:35:02 23° SSW
Cosmos 2278 4.3 21:27:27 10° NW 21:32:57 49° WSW 21:36:25 22° S
Cosmos 1741 Rocket 3.9 21:31:50 17° SSW 21:36:00 85° ESE 21:41:20 10° NNE
USA 281 3.6 21:32:45 22° SE 21:37:00 56° ENE 21:43:24 10° NNW
Tiangong -0.1 21:36:03 10° WSW 21:37:28 17° SW 21:37:28 17° SW
Cosmos 1400 Rocket 3.9 21:35:14 12° SW 21:38:32 40° WNW 21:42:12 10° N
MetOp-A 4.1 21:37:25 27° S 21:40:15 77° WSW 21:45:33 10° NNW
Okean 3 3.4 21:39:26 37° SSE 21:40:58 69° E 21:45:06 10° NNE
Terra 3.4 21:37:47 12° SSW 21:41:24 27° W 21:45:25 10° NW
COSMOS 2428 4.5 21:37:32 10° N 21:42:02 23° NE 21:46:15 11° E
Cosmos 1733 Rocket 3.1 21:37:56 10° N 21:42:21 80° W 21:44:15 34° S
GP-B 4.0 21:39:41 10° NNE 21:43:40 32° E 21:44:46 28° ESE
Cosmos 968 Rocket 3.4 21:41:01 25° S 21:44:02 74° ESE 21:49:13 10° NNE
Cosmos 1814 Rocket 4.3 21:42:18 10° NNW 21:47:34 61° ENE 21:50:00 31° SE
SL-4 R/B 3.9 21:44:12 10° WNW 21:47:42 30° N 21:51:23 10° ENE
Cosmos 2228 Rocket 3.6 21:44:42 20° SSW 21:47:43 59° W 21:52:15 10° N
Meteor 2-20 Rocket 4.5 21:45:26 10° N 21:51:46 71° E 21:54:48 31° SSE
Cosmos 1315 Rocket 3.1 21:51:04 43° SE 21:51:48 50° E 21:55:40 10° NNE
Cosmos 2219 Rocket 2.7 21:47:20 10° NNW 21:52:52 51° ENE 21:55:47 27° ESE
ATLAS CENTAUR R/B 0.9 21:52:13 33° SW 21:53:41 82° NW 21:57:16 10° NE
Cosmos 1908 Rocket 4.2 21:49:31 10° N 21:53:41 43° ENE 21:54:53 34° ESE
Cosmos 1244 Rocket 4.5 21:52:53 29° S 21:56:14 73° E 22:02:30 10° NNE
Meteor 2-10 Rocket 4.4 21:52:02 10° NNW 21:57:21 45° W 22:00:34 21° SSW
Cosmos 1953 2.5 21:56:25 10° N 22:00:11 53° ENE 22:00:51 46° ESE
H-2A R/B 3.5 21:59:30 29° ESE 22:00:49 36° ENE 22:04:46 10° N
Cosmos 1242 Rocket 3.7 22:04:20 22° ENE 22:04:20 22° ENE 22:05:49 10° NNE
Cosmos 1455 2.3 21:59:58 10° N 22:03:24 49° E 22:03:41 47° E
Okean 1-7 2.9 22:04:58 45° S 22:06:13 80° E 22:10:34 10° N
BREEZE-M DEB (TANK) 2.3 22:06:51 10° WNW 22:09:06 68° SSW 22:09:09 68° SSW
CZ-2C R/B 3.5 22:05:44 10° NNE 22:10:09 85° ESE 22:11:36 43° S
CZ-4C R/B 3.9 22:11:44 13° E 22:11:44 13° E 22:13:08 10° ENE
ALOS 2 3.9 22:11:53 25° E 22:13:16 30° ENE 22:17:05 10° N
Cosmos 2360 Rocket 2.4 22:10:19 10° NNW 22:15:54 59° WSW 22:18:06 35° S
RESURS DK-1 3.7 22:16:59 10° NW 22:20:26 27° WSW 22:21:10 26° SW
Cosmos 2333 Rocket 2.5 22:15:18 10° NNW 22:20:58 59° WSW 22:23:08 36° S
SL-16 R/B 3.7 22:18:43 10° NW 22:23:15 25° WSW 22:25:47 18° SW
H-2A R/B 4.2 22:21:32 10° ENE 22:23:29 13° E 22:23:29 13° E
Atlas Centaur 2 4.0 22:19:57 10° WSW 22:25:50 24° SSW 22:25:50 24° SSW
SL-08 R/B 4.4 22:25:46 32° SSW 22:28:45 82° W 22:34:53 10° N
OPS 8737 4.4 22:26:08 10° NW 22:28:45 65° N 22:28:45 65° N
BREEZE-M DEB (TANK) 4.3 22:17:00 10° W 22:32:11 60° NNW 22:36:13 10° ENE
Cosmos 1703 Rocket 3.6 22:32:44 50° SSW 22:33:52 80° W 22:38:21 10° N
Cosmos 2242 Rocket 4.2 22:36:20 39° ESE 22:36:56 41° E 22:41:13 10° NNE
DNEPR-1 R/B 4.2 22:31:19 10° NW 22:37:58 85° WSW 22:39:56 43° SSE
Meteor 1-4 Rocket 4.2 22:41:49 20° W 22:42:15 20° WNW 22:44:36 10° NNW
Cosmos 839 Rocket 4.1 22:38:49 10° NW 22:45:31 63° WSW 22:47:42 40° S
Cosmos 2322 3.7 22:41:45 10° NNW 22:47:28 78° ENE 22:49:30 41° SE
BlueWalker 3 3.5 22:50:03 24° E 22:50:03 24° E 22:51:49 10° ENE
Cosmos 2237 Rocket 3.7 22:43:34 10° N 22:48:30 29° NE 22:52:21 15° ESE
ATLAS 2AS CENTAUR R/B 3.1 22:46:46 10° NW 22:53:11 46° WSW 22:55:16 35° SSW
Cosmos 2227 Rocket 4.0 22:53:35 15° ESE 22:54:16 16° E 22:57:31 10° ENE
Cosmos 405 Rocket 4.4 22:52:27 10° NNE 22:55:27 22° ENE 22:55:58 21° E
ARIANE 5 R/B 3.6 22:54:59 31° WSW 22:55:45 33° W 22:59:41 10° NNW
SL-24 R/B - RUBIN 2 4.4 22:52:50 10° NW 22:59:24 71° WSW 23:01:28 43° S
Meteor 2-5 Rocket 4.1 23:03:32 40° SE 23:05:17 54° E 23:10:59 10° NNE
Cosmos 1703 3.4 23:06:48 55° ENE 23:06:48 55° ENE 23:10:12 10° NNE
Cosmos 2322 Rocket 4.0 23:03:55 10° WNW 23:07:32 18° W 23:09:15 15° WSW
Cosmos 1745 Rocket 4.2 23:05:10 35° SSW 23:07:57 68° W 23:14:19 10° N
Cosmos 1570 Rocket 4.1 23:02:45 10° NNW 23:08:04 68° WSW 23:09:22 49° SSW
SJ 16-02 3.4 23:05:36 13° WSW 23:08:26 23° WNW 23:11:52 10° N
PSLV R/B 3.6 23:04:33 10° NNE 23:08:45 57° E 23:08:58 56° ESE
COSMOS 2455 2.9 23:08:58 45° S 23:10:36 61° ESE 23:16:33 10° NE
Cosmos 2297 Rocket 2.7 23:13:10 40° SE 23:14:11 44° ESE 23:19:31 10° NE
Nadezhda 1 Rocket 4.5 23:13:19 10° NNW 23:19:23 50° W 23:21:42 34° SW
Cosmos 2181 Rocket 4.3 23:13:40 10° N 23:19:47 57° ENE 23:22:13 35° SE
Cosmos 1408 3.5 23:22:14 35° NW 23:22:14 35° NW 23:24:26 10° N
USA 281 4.2 23:19:37 26° SW 23:21:45 31° WSW 23:27:29 10° NW
COSMOS 2428 2.7 23:21:07 10° NNW 23:26:46 66° WSW 23:28:13 48° S
SL-4 R/B 3.2 23:23:13 10° NW 23:27:09 43° NNE 23:31:16 10° E
GEOS 3 Rocket 3.5 23:25:12 10° NE 23:30:21 68° SE 23:31:28 52° S
ATLAS CENTAUR R/B 4.1 23:30:41 10° NW 23:31:58 11° NW 23:33:16 10° NNW
CZ-3 Stage 3 4.3 23:17:32 10° W 23:35:43 29° SW 23:37:06 28° SSW
H-2A R/B 4.1 23:35:29 22° WSW 23:35:49 22° W 23:39:13 10° NW
Cosmos 2074 Rocket 4.5 23:33:38 35° SE 23:35:49 49° E 23:41:46 10° NNE
Cosmos 2219 Rocket 3.4 23:31:52 10° NW 23:36:28 26° WSW 23:37:28 25° WSW
Cosmos 1892 3.4 23:38:13 39° ENE 23:38:13 39° ENE 23:41:10 10° NNE
Cosmos 2208 Rocket 4.3 23:33:45 10° NNW 23:38:44 47° WSW 23:39:34 43° SW
Cosmos 371 Rocket 3.3 23:38:59 54° SW 23:40:02 77° WNW 23:44:53 10° NNE
Cosmos 158 Rocket 4.3 23:36:08 10° NNW 23:41:14 49° WSW 23:42:08 44° SW
Cosmos 773 Rocket 3.9 23:43:31 10° NNW 23:48:40 79° WSW 23:49:51 54° S
Cosmos 2151 Rocket 3.5 23:45:01 10° N 23:49:26 79° E 23:50:03 64° SSE
ALOS 2 3.8 23:49:16 27° WSW 23:49:33 28° W 23:53:20 10° NW
Cosmos 2263 Rocket 4.0 23:50:27 16° ESE 23:51:57 17° E 23:55:30 10° ENE
Cosmos 1503 Rocket 4.0 23:51:55 48° SSW 23:53:27 81° WNW 23:58:48 10° NNE
